User: anonymous   Login
Location: *
(51.1248°S, 108.4023°W)
Time: 18:40:02
(UTC+00:00)
Language:

IRAS Rocket - Orbit

View from above orbital plane
View from above orbital plane
View from above satellite
View from above satellite

Ground track
Ground track

The orbit data is extracted from the following two-line orbital elements,

1 13778U 83004B   21263.78961992  .00000034  00000-0  51079-4 0  9999
2 13778 100.0982  88.5013 0020369 289.6369  70.2599 14.09058231985980
Epoch (UTC): 20 September 2021 18:57:03
Eccentricity: 0.0020369
inclination: 100.0982°
perigee height: 848 km
apogee height: 877 km
right ascension of ascending node: 88.5013°
argument of perigee: 289.6369°
revolutions per day: 14.09058231
mean anomaly at epoch: 70.2599°
orbit number at epoch: 98598

The dashed part of the orbit path shows where the satellite is in the earth's shadow,  

DLR